| time (UTC) | temp F | wind direction | speed knots | gust knots | rain 1hr in | rain 24hr in | rain mn in | humidity % | barometer mb |
| 20260505083551 | 59 | 255 | 6.1 | 12.2 | 0.00 | 0.12 | 0.04 | 77 | 996.5 |
| 20260505082526 | 59 | 239 | 5.2 | 11.3 | 0.00 | 0.12 | 0.04 | 77 | 996.4 |
| 20260505081522 | 59 | 257 | 5.2 | 11.3 | 0.00 | 0.12 | 0.04 | 77 | 996.3 |
| 20260505080538 | 60 | 252 | 5.2 | 12.2 | 0.00 | 0.12 | 0.04 | 76 | 996.1 |
| 20260505075534 | 60 | 250 | 5.2 | 9.6 | 0.00 | 0.12 | 0.04 | 76 | 995.8 |
| 20260505074530 | 60 | 253 | 5.2 | 9.6 | 0.00 | 0.12 | 0.04 | 76 | 995.3 |
| 20260505073546 | 60 | 244 | 3.5 | 7.8 | 0.00 | 0.12 | 0.04 | 76 | 994.9 |
| 20260505072542 | 60 | 254 | 4.3 | 8.7 | 0.00 | 0.12 | 0.04 | 76 | 995.3 |
| 20260505071518 | 60 | 256 | 4.3 | 11.3 | 0.00 | 0.12 | 0.04 | 76 | 995.4 |
| 20260505070534 | 60 | 258 | 5.2 | 9.6 | 0.00 | 0.12 | 0.04 | 76 | 995.5 |
| 20260505065531 | 60 | 266 | 5.2 | 11.3 | 0.00 | 0.12 | 0.04 | 76 | 995.4 |
| 20260505064526 | 60 | 257 | 4.3 | 8.7 | 0.00 | 0.12 | 0.04 | 76 | 995.8 |
| 20260505063522 | 60 | 263 | 4.3 | 7.8 | 0.00 | 0.12 | 0.04 | 76 | 995.9 |
| 20260505062518 | 59 | 252 | 4.3 | 8.7 | 0.00 | 0.12 | 0.04 | 77 | 995.7 |
| 20260505061534 | 59 | 249 | 3.5 | 7.0 | 0.03 | 0.12 | 0.04 | 77 | 995.4 |
| 20260505060530 | 59 | 226 | 3.5 | 7.8 | 0.04 | 0.12 | 0.04 | 75 | 995.5 |
| 20260505055525 | 60 | 226 | 2.6 | 7.8 | 0.04 | 0.12 | 0.04 | 75 | 995.8 |
| 20260505054521 | 60 | 226 | 1.7 | 7.8 | 0.04 | 0.12 | 0.04 | 74 | 996.1 |
| 20260505053517 | 61 | 265 | 4.3 | 7.8 | 0.04 | 0.12 | 0.04 | 73 | 995.9 |
| 20260505052533 | 63 | 269 | 6.1 | 13.0 | 0.04 | 0.12 | 0.04 | 72 | 996.3 |
| 20260505051529 | 65 | 253 | 11.3 | 26.1 | 0.00 | 0.09 | 0.00 | 66 | 996.7 |
| 20260505050525 | 65 | 263 | 7.8 | 15.6 | 0.00 | 0.09 | 0.00 | 66 | 996.5 |
| 20260505041525 | 59 | 251 | 4.3 | 13.0 | 0.00 | 0.09 | 0.00 | 76 | 996.1 |
| 20260505040520 | 59 | 202 | 1.7 | 5.2 | 0.00 | 0.09 | 0.00 | 76 | 995.8 |
| 20260505035516 | 59 | 162 | 2.6 | 3.5 | 0.00 | 0.09 | 0.09 | 76 | 995.9 |
| 20260505034532 | 59 | 163 | 3.5 | 7.0 | 0.00 | 0.09 | 0.09 | 75 | 995.9 |
| 20260505033529 | 60 | 165 | 3.5 | 7.8 | 0.00 | 0.09 | 0.09 | 75 | 996.0 |
| 20260505032524 | 60 | 178 | 3.5 | 7.8 | 0.00 | 0.09 | 0.09 | 74 | 996.3 |
| 20260505031520 | 61 | 159 | 3.5 | 7.8 | 0.00 | 0.09 | 0.09 | 72 | 996.6 |
| 20260505030516 | 62 | 181 | 4.3 | 11.3 | 0.02 | 0.09 | 0.09 | 73 | 996.6 |
| 20260505025532 | 62 | 224 | 3.5 | 7.0 | 0.02 | 0.09 | 0.09 | 74 | 996.6 |
| 20260505024608 | 61 | 228 | 3.5 | 7.0 | 0.05 | 0.09 | 0.09 | 75 | 996.6 |
| 20260505023524 | 61 | 258 | 2.6 | 6.1 | 0.05 | 0.09 | 0.09 | 75 | 996.5 |
| 20260505022520 | 61 | 247 | 2.6 | 8.7 | 0.06 | 0.09 | 0.09 | 75 | 996.6 |
| 20260505021516 | 61 | 267 | 1.7 | 5.2 | 0.07 | 0.08 | 0.08 | 75 | 996.6 |
| 20260505020552 | 61 | 199 | 2.6 | 6.1 | 0.07 | 0.07 | 0.07 | 74 | 996.6 |
| 20260505015528 | 61 | 260 | 2.6 | 11.3 | 0.07 | 0.07 | 0.07 | 74 | 996.5 |
| 20260505014524 | 62 | 184 | 1.7 | 7.0 | 0.04 | 0.04 | 0.04 | 72 | 996.6 |
| 20260505013520 | 63 | 173 | 0.9 | 1.7 | 0.03 | 0.04 | 0.04 | 71 | 996.4 |
| 20260505012536 | 63 | 179 | 0.9 | 3.5 | 0.02 | 0.02 | 0.02 | 70 | 996.6 |
| 20260505011532 | 63 | 303 | 2.6 | 5.2 | 0.00 | 0.01 | 0.01 | 71 | 996.6 |
| 20260505010527 | 63 | 262 | 3.5 | 8.7 | 0.00 | 0.00 | 0.00 | 70 | 996.3 |
| 20260505005523 | 63 | 268 | 2.6 | 7.8 | 0.00 | 0.00 | 0.00 | 69 | 996.3 |
| 20260505004519 | 63 | 241 | 2.6 | 7.8 | 0.00 | 0.00 | 0.00 | 69 | 996.1 |
| 20260505003556 | 63 | 255 | 4.3 | 8.7 | 0.00 | 0.00 | 0.00 | 68 | 995.9 |
| 20260505002531 | 63 | 256 | 3.5 | 7.8 | 0.00 | 0.00 | 0.00 | 66 | 995.7 |
| 20260505001527 | 65 | 236 | 5.2 | 13.0 | 0.00 | 0.00 | 0.00 | 62 | 995.9 |
| 20260505000523 | 67 | 214 | 5.2 | 19.1 | 0.00 | 0.00 | 0.00 | 58 | 995.3 |
| 20260504235518 | 68 | 138 | 2.6 | 5.2 | 0.00 | 0.00 | 0.00 | 56 | 995.1 |
| 20260504234535 | 69 | 151 | 3.5 | 6.1 | 0.00 | 0.00 | 0.00 | 54 | 995.2 |
| 20260504233531 | 72 | 148 | 4.3 | 8.7 | 0.00 | 0.00 | 0.00 | 51 | 995.2 |
| 20260504232527 | 73 | 169 | 5.2 | 9.6 | 0.00 | 0.00 | 0.00 | 48 | 995.1 |
| 20260504231523 | 74 | 228 | 4.3 | 13.0 | 0.00 | 0.00 | 0.00 | 48 | 994.9 |
| 20260504230519 | 74 | 228 | 5.2 | 9.6 | 0.00 | 0.00 | 0.00 | 48 | 994.9 |
| 20260504225535 | 73 | 237 | 5.2 | 13.9 | 0.00 | 0.00 | 0.00 | 48 | 995.1 |
| 20260504224531 | 72 | 189 | 2.6 | 9.6 | 0.00 | 0.00 | 0.00 | 49 | 995.5 |
| 20260504223527 | 71 | 172 | 4.3 | 9.6 | 0.00 | 0.00 | 0.00 | 51 | 995.5 |
| 20260504222523 | 71 | 161 | 4.3 | 9.6 | 0.00 | 0.00 | 0.00 | 51 | 995.6 |
| 20260504221519 | 71 | 164 | 2.6 | 7.8 | 0.00 | 0.00 | 0.00 | 50 | 995.7 |
| 20260504220535 | 71 | 190 | 4.3 | 8.7 | 0.00 | 0.00 | 0.00 | 49 | 995.9 |
| 20260504215531 | 72 | 178 | 4.3 | 9.6 | 0.00 | 0.00 | 0.00 | 48 | 995.9 |
| 20260504214527 | 72 | 170 | 4.3 | 11.3 | 0.00 | 0.00 | 0.00 | 46 | 996.0 |
| 20260504213523 | 73 | 166 | 4.3 | 12.2 | 0.00 | 0.00 | 0.00 | 45 | 996.3 |
| 20260504212519 | 73 | 185 | 5.2 | 13.9 | 0.00 | 0.00 | 0.00 | 46 | 996.4 |
| 20260504211515 | 72 | 178 | 3.5 | 9.6 | 0.00 | 0.00 | 0.00 | 46 | 996.3 |
| 20260504210552 | 72 | 186 | 6.1 | 13.0 | 0.00 | 0.00 | 0.00 | 47 | 996.4 |
| 20260504205547 | 72 | 201 | 6.1 | 13.9 | 0.00 | 0.00 | 0.00 | 46 | 996.5 |
| 20260504204524 | 71 | 158 | 5.2 | 12.2 | 0.00 | 0.00 | 0.00 | 47 | 996.6 |
| 20260504203519 | 72 | 200 | 6.1 | 14.8 | 0.00 | 0.00 | 0.00 | 46 | 996.7 |
| 20260504202515 | 72 | 164 | 6.1 | 20.9 | 0.00 | 0.00 | 0.00 | 44 | 996.6 |
| 20260504201531 | 73 | 168 | 7.0 | 15.6 | 0.00 | 0.00 | 0.00 | 43 | 996.6 |
| 20260504200527 | 75 | 179 | 5.2 | 12.2 | 0.00 | 0.00 | 0.00 | 41 | 996.7 |
| 20260504195523 | 75 | 236 | 4.3 | 12.2 | 0.00 | 0.00 | 0.00 | 37 | 996.7 |
| 20260504194519 | 75 | 218 | 6.1 | 15.6 | 0.00 | 0.00 | 0.00 | 38 | 996.7 |
| 20260504193515 | 73 | 227 | 6.1 | 19.1 | 0.00 | 0.00 | 0.00 | 40 | 996.8 |
| 20260504192531 | 73 | 167 | 6.1 | 18.2 | 0.00 | 0.00 | 0.00 | 47 | 997.1 |
| 20260504191527 | 72 | 197 | 5.2 | 9.6 | 0.00 | 0.00 | 0.00 | 50 | 997.1 |
| 20260504190523 | 71 | 192 | 6.1 | 15.6 | 0.00 | 0.00 | 0.00 | 50 | 997.4 |
| 20260504185559 | 71 | 198 | 6.1 | 13.0 | 0.00 | 0.00 | 0.00 | 51 | 997.6 |
| 20260504184515 | 72 | 176 | 4.3 | 11.3 | 0.00 | 0.00 | 0.00 | 52 | 997.7 |
| 20260504183531 | 71 | 185 | 4.3 | 13.0 | 0.00 | 0.00 | 0.00 | 51 | 997.6 |
| 20260504182528 | 72 | 157 | 7.8 | 13.9 | 0.00 | 0.00 | 0.00 | 50 | 997.6 |
| 20260504181523 | 72 | 158 | 7.0 | 15.6 | 0.00 | 0.00 | 0.00 | 51 | 997.8 |
| 20260504180520 | 72 | 159 | 6.1 | 15.6 | 0.00 | 0.00 | 0.00 | 52 | 998.0 |
| 20260504175535 | 72 | 168 | 7.0 | 12.2 | 0.00 | 0.00 | 0.00 | 53 | 998.2 |
| 20260504174531 | 71 | 173 | 5.2 | 13.0 | 0.00 | 0.00 | 0.00 | 53 | 998.5 |
| 20260504173527 | 72 | 171 | 7.0 | 13.9 | 0.00 | 0.00 | 0.00 | 53 | 998.7 |
| 20260504172604 | 71 | 153 | 6.1 | 11.3 | 0.00 | 0.00 | 0.00 | 52 | 998.8 |
| 20260504171520 | 71 | 193 | 7.0 | 13.0 | 0.00 | 0.00 | 0.00 | 53 | 998.8 |
| 20260504170516 | 71 | 197 | 7.0 | 13.0 | 0.00 | 0.00 | 0.00 | 52 | 999.0 |
| 20260504150527 | 66 | 240 | 2.6 | 11.3 | 0.00 | 0.00 | 0.00 | 54 | 1000.1 |
| 20260504140544 | 61 | 238 | 1.7 | 6.1 | 0.00 | 0.00 | 0.00 | 60 | 1000.4 |
| 20260504130520 | 57 | 250 | 4.3 | 13.9 | 0.00 | 0.00 | 0.00 | 63 | 1001.0 |
| 20260504110532 | 50 | 245 | 2.6 | 6.1 | 0.00 | 0.00 | 0.00 | 69 | 1001.3 |
| 20260504100527 | 50 | 224 | 1.7 | 6.1 | 0.00 | 0.00 | 0.00 | 67 | 1000.9 |